Temperature
21 21 21 21 21 21 21 21 21 21 21 21 21 20 20 20 20 20 20 20 20 20 20 20 20 20 20 20 20 20 20 20 20 20 20 20 20 20 20 20 20 19 19
22 21 21 21 21 21 21 21 21 20 20 20 20 20 20 20 20 20 20 20 20 20 20 20 20 20 20 20 20 20 20 20 20 20 20 19 19 20 20 20 20 20 19
22 22 22 22 22 21 21 20 20 20 20 20 20 20 20 20 20 20 20 20 20 20 20 20 20 20 20 20 20 20 20 20 20 20 19 19 19 19 19 20 20 20 19
23 22 22 22 22 21 21 20 20 20 20 20 20 20 20 20 20 20 20 20 20 20 20 20 20 20 20 20 20 20 20 20 20 19 19 19 18 18 18 19 19 19 19
23 22 22 22 22 21 21 21 20 20 20 20 20 20 20 20 20 20 20 20 20 20 20 20 20 20 20 20 20 20 20 20 20 19 19 18 18 18 18 18 18 19 19
23 23 22 22 22 21 21 21 20 20 20 20 20 20 20 20 20 20 20 20 20 20 20 20 20 20 20 20 20 20 20 20 20 19 19 18 18 18 18 18 18 18 18
23 23 22 22 22 22 21 21 21 21 20 20 20 20 20 20 20 20 20 20 20 20 20 20 20 20 20 20 20 20 19 19 19 19 19 19 18 18 18 18 18 18 18
24 23 22 22 22 22 22 21 21 21 21 21 21 20 20 20 20 20 20 20 20 20 20 20 20 20 20 20 20 19 19 19 19 19 19 19 18 18 18 17 18 18 18
24 23 23 22 22 22 22 21 21 21 21 21 21 20 20 20 20 20 20 20 20 20 20 20 20 20 19 19 19 19 19 19 19 19 19 19 18 18 18 17 18 18 18
24 24 23 23 23 22 22 22 21 21 21 21 21 20 20 20 20 20 20 20 20 20 20 20 19 19 19 19 19 19 19 19 19 19 19 19 19 18 18 18 18 18 18
23 23 23 23 23 23 22 22 22 21 21 21 21 21 20 20 20 20 20 19 19 19 19 19 19 19 19 19 19 19 19 19 19 19 19 19 19 19 18 18 18 18 18
23 23 23 23 23 23 22 22 22 22 21 21 21 21 21 20 20 20 20 19 19 19 19 19 19 19 19 19 19 19 19 19 19 19 19 19 19 19 19 18 18 18 18
23 23 22 22 22 22 22 22 22 21 21 21 21 21 21 20 20 20 20 20 19 19 19 19 19 19 19 19 19 19 19 19 19 19 19 19 19 19 19 19 18 18 18
23 23 22 22 22 22 22 22 21 21 21 21 21 21 20 20 20 20 20 20 19 19 19 19 19 19 19 19 19 19 19 19 19 19 19 19 19 19 19 19 19 18 18
24 23 23 22 22 21 21 21 21 20 20 20 20 20 20 20 20 20 20 19 19 19 19 19 19 19 19 19 18 19 19 19 19 19 19 19 19 19 19 19 19 18 18
24 24 23 23 22 21 21 21 20 20 20 20 20 20 20 20 20 20 20 19 19 19 19 19 19 19 18 18 18 18 18 18 18 18 19 19 19 19 19 19 19 18 18
24 24 23 23 22 21 21 21 20 20 19 19 19 20 20 20 20 20 20 19 19 19 19 19 19 18 18 18 18 18 18 19 19 19 19 19 19 19 19 19 19 19 19
24 23 23 22 22 21 21 21 20 20 20 19 19 19 19 19 20 20 20 20 19 19 19 19 18 18 18 18 18 18 18 19 19 19 19 19 19 19 19 19 19 19 19
23 23 22 22 21 21 21 21 20 20 20 20 20 20 20 19 19 19 19 19 19 19 19 18 18 18 18 18 18 18 18 19 19 19 19 19 20 20 20 20 19 19 19
23 22 22 21 20 20 20 19 19 19 20 20 20 20 20 19 19 19 19 19 19 18 18 18 18 18 18 18 18 18 18 18 19 19 19 19 20 20 20 20 19 19 19
22 22 21 21 20 20 20 19 19 19 19 19 19 19 19 19 19 19 19 18 18 18 19 18 18 18 18 18 18 18 18 18 18 19 19 19 19 20 20 20 19 19 19
22 22 21 21 21 20 19 19 19 19 19 19 19 19 19 19 19 19 18 18 18 18 18 18 18 17 18 17 17 17 17 17 18 18 18 18 19 19 20 19 19 19 19
22 22 22 21 21 20 20 19 19 19 18 18 18 18 18 18 18 18 18 18 18 18 18 18 18 17 17 17 17 16 16 16 17 17 18 18 18 18 18 18 18 18 18
23 22 22 21 21 20 20 19 19 18 18 18 17 17 17 17 18 18 18 18 18 18 18 18 17 17 17 17 16 16 16 15 15 16 17 17 17 17 18 18 18 18 18
23 22 21 21 20 20 19 19 18 18 17 17 17 17 17 17 17 17 17 17 17 17 17 17 17 17 17 16 16 16 15 15 15 15 15 17 17 17 17 17 17 17 17
22 21 21 20 20 19 18 18 17 17 17 16 16 16 17 17 17 17 16 16 16 16 16 16 16 16 16 16 16 15 15 15 15 15 15 15 16 16 16 16 16 16 16
Wind_Speed
12 16 23 22 21 19 17 17 17 17 16 17 17 17 17 17 16 15 14 13 12 12 12 12 12 12 12 12 12 13 12 11 11 11 11 11 11 10 9 10 11 10 11
15 20 24 24 22 20 18 17 16 16 16 15 15 15 15 15 14 13 12 11 11 10 10 10 10 10 10 10 10 10 9 9 8 8 9 8 8 7 7 9 11 10 11
19 20 24 24 23 21 19 18 17 16 15 15 14 14 13 13 12 11 10 10 9 9 9 9 8 8 8 8 7 7 6 6 5 5 6 5 5 6 7 11 13 12 10
19 19 21 25 24 22 20 18 17 16 15 14 14 13 12 12 11 10 9 8 8 7 7 7 7 7 7 6 5 4 4 3 3 3 4 5 6 7 8 10 13 12 11
16 18 22 25 24 22 21 19 17 16 15 14 14 13 12 11 10 10 9 8 7 7 7 6 6 6 6 6 6 5 5 5 5 5 5 7 8 10 12 11 13 13 12
14 16 22 24 23 22 21 20 18 17 16 15 14 13 12 11 11 10 9 9 8 7 7 7 6 7 7 7 7 7 7 7 7 7 8 9 11 14 16 15 14 14 14
14 15 20 23 22 22 21 20 19 18 17 16 15 14 13 12 12 11 11 10 10 9 9 8 8 8 8 8 9 9 9 9 9 9 9 9 11 15 20 20 18 17 16
18 15 18 22 22 21 21 20 19 18 17 16 15 14 13 13 12 12 12 12 11 11 10 10 10 10 11 11 10 10 10 11 10 9 8 8 10 15 22 22 21 20 19
16 14 13 18 19 20 20 20 19 18 17 16 15 15 14 14 13 13 13 14 13 13 13 13 13 13 13 13 13 12 12 13 13 11 12 11 10 13 21 24 23 22 21
14 13 10 13 15 16 17 19 19 18 17 17 16 16 15 15 15 15 15 15 16 16 17 16 16 16 15 15 15 15 15 15 14 13 12 14 15 15 19 24 25 24 22
13 11 11 10 12 14 15 18 18 18 18 18 17 17 16 14 15 15 17 18 19 19 19 19 18 18 17 17 17 17 16 13 13 13 13 16 19 18 20 25 27 25 24
15 13 12 12 11 12 14 14 13 15 15 16 15 15 15 14 15 15 17 21 22 22 21 21 21 19 17 14 15 17 14 15 13 13 15 19 21 22 22 25 28 27 25
17 16 14 13 11 11 7 9 9 11 11 14 15 16 14 13 13 14 13 15 18 20 18 17 18 16 14 12 11 12 14 13 12 13 16 20 22 23 23 24 27 27 25
16 17 15 14 13 11 8 7 8 7 8 10 15 17 13 8 8 9 8 11 11 13 11 12 9 12 13 14 13 11 12 11 11 13 16 22 24 23 22 23 25 26 25
17 17 17 15 15 12 10 7 8 8 9 12 14 16 16 9 10 9 7 9 10 11 9 7 8 9 9 10 12 11 10 12 13 14 14 20 23 23 23 24 25 25 25
18 17 17 17 16 13 11 10 9 8 10 11 12 16 19 14 10 10 10 8 7 10 11 9 9 10 9 9 11 11 9 9 11 13 14 16 21 22 23 24 26 27 26
14 14 16 17 15 14 12 12 9 8 9 7 11 17 18 17 13 11 10 9 8 10 10 8 8 6 7 7 8 8 7 6 7 8 11 12 14 19 24 26 27 28 28
5 6 9 11 11 12 11 9 7 5 5 5 7 11 15 18 17 10 10 10 8 7 6 6 5 5 5 5 5 5 6 6 7 7 9 10 12 13 18 24 27 28 29
6 5 4 3 5 7 8 6 6 5 5 4 5 5 9 14 16 10 10 8 6 5 5 5 4 4 4 5 5 6 6 7 7 9 9 9 11 13 14 18 25 28 29
8 7 6 3 2 3 4 5 5 6 6 5 5 6 8 8 10 7 8 6 5 4 4 4 4 3 4 4 6 6 6 7 7 8 10 9 9 12 13 14 14 18 26
8 8 7 6 3 1 1 3 4 5 5 6 6 7 7 7 6 5 6 5 6 6 6 5 4 5 5 4 3 5 6 8 9 9 8 8 9 9 8 8 9 11 11
8 7 6 5 4 2 1 2 3 4 4 5 5 6 7 6 5 6 7 6 7 6 7 7 6 5 5 5 4 3 4 5 5 7 5 4 4 4 4 3 3 5 6
7 6 5 4 4 3 2 0 2 3 4 4 5 5 6 6 7 7 8 7 8 8 8 8 9 8 7 5 5 5 4 5 4 4 3 2 3 3 3 2 1 1 1
7 7 7 7 5 4 3 2 0 2 3 5 5 5 7 7 7 8 7 8 8 7 8 9 9 7 7 7 5 6 5 4 3 4 4 2 4 3 3 3 2 1 2
7 7 7 6 5 4 3 2 1 2 3 4 5 7 7 7 7 7 7 6 7 7 8 8 7 8 7 7 5 4 4 4 4 4 4 4 4 4 3 1 2 3 3
4 4 4 5 3 3 2 1 1 2 4 6 7 7 7 6 6 7 7 6 6 6 7 8 8 8 7 7 5 5 4 3 3 3 4 3 3 4 2 2 3 3 2
Wind_Direction
152 157 153 151 149 146 142 136 131 127 122 118 115 113 112 112 111 112 113 113 112 111 112 111 109 107 106 106 108 111 115 119 123 123 122 121 119 117 117 123 118 112 112
150 156 153 153 152 149 145 141 137 134 130 127 125 123 122 121 121 120 121 120 119 117 117 116 115 113 111 111 111 114 118 121 122 124 127 130 130 123 117 135 134 127 122
146 153 154 154 154 151 148 145 143 141 138 136 135 134 133 132 131 131 130 128 126 125 126 126 126 124 122 121 121 123 124 125 128 137 142 146 155 151 135 134 138 136 134
147 151 154 155 155 153 151 150 149 148 147 146 146 147 147 147 147 146 145 143 142 142 143 144 144 142 143 146 149 154 160 166 178 192 194 203 204 192 175 156 151 150 149
145 150 156 156 156 155 155 155 155 155 156 156 157 159 160 162 163 164 165 166 165 165 167 168 168 167 170 175 183 194 209 222 231 240 249 251 235 214 199 185 172 165 164
145 151 158 157 158 158 158 159 161 162 164 166 168 169 172 175 179 181 181 184 186 187 190 191 193 192 194 201 207 216 227 239 247 248 250 256 249 229 208 200 193 182 178
147 152 159 159 159 160 160 163 166 169 172 174 176 178 181 185 190 192 192 195 199 202 207 209 211 213 214 217 222 229 237 247 254 251 248 250 253 230 208 204 202 196 190
151 155 161 163 163 163 164 167 170 174 177 180 182 185 189 192 195 196 198 202 207 213 218 221 222 224 225 227 229 234 240 249 259 262 263 258 256 233 211 208 206 203 199
153 157 163 166 168 169 170 172 175 179 182 185 189 192 195 198 200 203 205 209 214 219 224 227 229 230 232 233 235 238 243 249 253 260 269 271 270 244 220 214 212 209 206
156 163 166 167 169 172 176 179 181 184 188 192 196 199 202 205 208 211 214 217 220 224 228 231 232 234 234 235 237 241 246 251 251 251 257 263 264 252 232 222 217 215 213
161 169 172 171 172 174 178 186 188 191 196 199 203 206 209 213 216 220 223 223 227 229 231 233 235 237 238 240 241 243 248 247 241 246 250 254 257 254 243 230 223 220 218
171 177 179 180 178 177 186 189 193 198 202 204 208 212 213 215 219 225 231 232 232 233 234 236 237 240 243 243 244 246 246 245 241 243 245 249 252 254 249 236 226 224 222
177 179 182 184 183 184 194 187 196 206 208 213 216 218 219 220 225 231 233 238 238 237 236 238 238 238 238 239 239 238 242 246 240 238 242 247 250 253 249 237 225 224 224
178 184 183 184 186 191 195 192 195 205 209 215 222 222 220 222 226 229 231 232 230 230 227 229 231 233 237 241 242 243 244 244 242 238 240 245 247 247 241 231 223 224 226
181 186 184 185 189 191 194 196 200 208 213 216 219 222 221 221 227 228 230 231 229 224 220 221 226 232 236 241 243 243 245 245 242 238 242 245 244 239 233 228 224 225 228
182 184 184 188 191 189 191 196 202 207 217 221 222 223 221 222 226 229 231 228 224 220 219 220 223 228 233 236 241 242 242 243 244 243 243 248 244 236 231 230 229 228 229
182 180 182 188 191 192 195 197 200 203 210 216 223 227 223 222 224 226 229 228 223 215 212 215 221 220 226 228 234 241 246 247 250 251 251 248 246 240 234 232 232 233 233
164 172 180 187 194 201 204 207 212 212 215 220 227 229 228 226 225 223 226 227 217 206 200 207 211 214 223 225 235 247 252 257 261 262 262 257 250 248 241 236 236 237 237
116 126 132 143 192 222 225 225 230 243 247 247 252 247 241 234 229 225 229 228 215 208 205 216 215 211 229 238 246 252 252 256 261 270 269 264 256 248 243 239 237 238 241
81 91 100 96 152 230 254 263 261 260 260 260 261 264 266 255 243 232 232 225 218 218 221 231 235 230 229 237 258 264 260 259 258 259 265 269 265 258 247 241 239 242 243
74 79 87 89 79 87 254 258 260 260 262 264 262 260 263 264 261 245 237 223 215 216 223 230 237 243 243 225 243 277 275 259 254 256 257 267 276 274 260 243 235 237 244
94 88 86 90 98 111 216 257 258 268 273 268 275 276 270 267 261 255 235 225 225 225 225 223 221 231 236 210 205 239 290 303 273 253 254 266 308 325 316 287 257 239 242
124 136 136 139 131 135 146 321 330 328 321 317 305 295 289 281 270 253 237 225 225 220 223 221 217 221 235 229 206 201 226 248 290 293 265 273 342 352 345 327 332 300 261
169 171 167 170 169 172 156 141 167 298 296 290 293 292 294 286 276 266 252 235 227 223 225 227 221 220 223 232 223 217 216 208 234 288 296 304 325 322 318 311 323 4 54
185 180 181 182 188 192 179 168 176 276 273 286 299 303 303 297 290 281 265 246 234 227 225 224 218 217 215 219 214 208 220 226 217 229 277 303 321 309 309 340 36 55 71
189 171 172 177 203 216 199 192 215 293 306 316 317 315 310 303 297 289 276 256 242 231 226 225 220 216 213 209 205 198 194 195 200 207 239 279 302 302 332 35 68 84 85
Height
1525 1529 1532 1534 1535 1537 1539 1541 1542 1544 1545 1546 1547 1548 1548 1549 1550 1550 1550 1551 1551 1551 1551 1551 1552 1552 1552 1553 1553 1554 1554 1554 1554 1555 1555 1556 1556 1556 1556 1555 1555 1555 1555
1522 1527 1531 1534 1535 1537 1539 1541 1542 1544 1545 1546 1547 1548 1549 1550 1550 1551 1551 1551 1552 1552 1552 1552 1552 1553 1553 1554 1554 1554 1555 1555 1556 1556 1556 1557 1557 1557 1557 1557 1557 1556 1557
1523 1527 1530 1533 1535 1537 1539 1541 1543 1544 1545 1546 1547 1548 1549 1550 1550 1551 1551 1552 1552 1552 1552 1553 1553 1553 1554 1554 1555 1555 1555 1556 1556 1556 1557 1557 1557 1557 1558 1558 1558 1558 1558
1523 1526 1530 1533 1535 1537 1539 1541 1542 1544 1545 1546 1547 1548 1549 1549 1550 1550 1551 1551 1552 1552 1552 1553 1553 1553 1553 1554 1554 1555 1555 1556 1556 1556 1556 1556 1557 1557 1558 1558 1559 1559 1559
1524 1527 1530 1533 1535 1537 1539 1541 1542 1544 1545 1546 1547 1548 1548 1549 1549 1550 1550 1551 1551 1551 1552 1552 1552 1552 1553 1553 1553 1554 1554 1555 1555 1555 1555 1555 1556 1556 1557 1558 1558 1559 1559
1523 1527 1530 1532 1535 1537 1539 1540 1541 1543 1544 1545 1546 1547 1547 1548 1548 1549 1549 1549 1550 1550 1551 1551 1551 1551 1551 1552 1552 1552 1553 1553 1553 1554 1554 1554 1554 1555 1555 1556 1557 1558 1558
1523 1526 1529 1532 1534 1536 1538 1539 1540 1542 1543 1544 1545 1545 1546 1547 1547 1547 1548 1548 1549 1549 1549 1550 1550 1550 1550 1550 1551 1551 1551 1551 1551 1552 1552 1552 1552 1553 1553 1554 1555 1556 1556
1523 1526 1529 1531 1533 1535 1537 1538 1540 1541 1541 1542 1543 1544 1545 1545 1545 1546 1546 1547 1547 1548 1548 1548 1548 1549 1549 1549 1549 1549 1549 1549 1549 1549 1550 1550 1550 1551 1551 1552 1553 1554 1554
1524 1526 1528 1530 1532 1534 1536 1537 1539 1540 1540 1541 1542 1543 1543 1544 1544 1544 1545 1545 1546 1546 1546 1546 1547 1547 1547 1547 1547 1546 1546 1546 1546 1546 1547 1547 1548 1548 1549 1550 1550 1551 1552
1524 1526 1527 1529 1531 1533 1534 1536 1537 1538 1539 1540 1541 1541 1542 1542 1542 1543 1543 1543 1544 1544 1544 1544 1544 1544 1544 1544 1544 1544 1543 1543 1543 1543 1543 1544 1545 1546 1546 1547 1547 1548 1549
1523 1525 1526 1528 1530 1531 1533 1534 1536 1537 1538 1538 1539 1539 1540 1540 1540 1540 1541 1541 1541 1541 1541 1541 1541 1541 1541 1541 1541 1540 1540 1540 1540 1540 1540 1541 1542 1543 1543 1544 1544 1545 1545
1520 1523 1525 1527 1528 1530 1531 1532 1534 1535 1536 1536 1537 1537 1538 1538 1538 1538 1538 1538 1538 1538 1539 1538 1538 1538 1538 1538 1538 1538 1537 1538 1538 1538 1538 1539 1539 1540 1540 1540 1541 1541 1542
1518 1521 1523 1526 1527 1529 1530 1531 1532 1533 1534 1534 1535 1535 1535 1536 1535 1535 1536 1535 1535 1535 1535 1535 1535 1535 1535 1535 1535 1535 1535 1535 1534 1535 1535 1535 1536 1536 1536 1536 1537 1538 1538
1516 1519 1522 1524 1526 1528 1529 1530 1531 1531 1532 1532 1533 1533 1533 1533 1533 1532 1532 1532 1532 1532 1532 1532 1532 1532 1532 1532 1532 1532 1532 1532 1531 1531 1531 1531 1531 1531 1532 1532 1533 1534 1534
1513 1516 1519 1522 1524 1526 1527 1528 1529 1530 1531 1531 1531 1531 1531 1531 1531 1530 1529 1529 1529 1529 1529 1529 1529 1529 1529 1529 1529 1529 1529 1529 1528 1528 1528 1527 1527 1527 1527 1528 1528 1529 1530
1511 1513 1516 1518 1521 1523 1524 1525 1526 1527 1528 1528 1529 1529 1528 1528 1528 1527 1526 1526 1525 1525 1526 1526 1526 1526 1526 1526 1526 1526 1526 1525 1525 1525 1524 1523 1523 1523 1522 1523 1523 1524 1525
1511 1512 1514 1516 1518 1520 1521 1522 1523 1523 1524 1524 1524 1524 1525 1524 1524 1523 1523 1522 1522 1522 1522 1522 1522 1522 1522 1521 1521 1521 1521 1521 1521 1521 1520 1519 1519 1518 1517 1517 1518 1519 1519
1513 1514 1515 1516 1517 1518 1519 1520 1521 1521 1521 1521 1521 1520 1520 1520 1519 1519 1518 1517 1518 1518 1518 1518 1518 1517 1517 1517 1517 1517 1517 1517 1517 1516 1516 1515 1514 1513 1512 1511 1512 1513 1513
1511 1513 1515 1514 1515 1516 1517 1518 1518 1518 1518 1518 1517 1517 1516 1515 1514 1513 1512 1512 1513 1513 1513 1513 1513 1512 1512 1512 1512 1512 1512 1511 1511 1511 1510 1509 1508 1507 1506 1505 1506 1506 1507
1511 1512 1513 1513 1513 1515 1514 1515 1515 1514 1513 1512 1512 1512 1511 1510 1508 1508 1507 1506 1507 1507 1507 1507 1507 1507 1506 1507 1507 1506 1505 1505 1505 1504 1504 1503 1502 1500 1499 1499 1499 1500 1500
1511 1512 1512 1513 1513 1513 1513 1511 1511 1509 1508 1507 1506 1506 1505 1504 1503 1502 1500 1500 1500 1501 1500 1502 1502 1501 1501 1502 1502 1500 1499 1499 1498 1498 1497 1497 1495 1494 1492 1492 1493 1494 1494
1510 1511 1512 1512 1511 1511 1510 1508 1507 1505 1503 1502 1500 1499 1499 1498 1497 1496 1495 1494 1494 1494 1494 1494 1495 1495 1495 1496 1496 1494 1492 1492 1490 1491 1491 1490 1489 1487 1486 1486 1487 1488 1489
1508 1509 1509 1509 1509 1508 1507 1506 1504 1501 1499 1497 1495 1493 1492 1490 1489 1488 1487 1487 1486 1486 1486 1486 1487 1488 1488 1489 1490 1490 1488 1485 1485 1485 1485 1485 1484 1482 1481 1482 1482 1483 1483
1506 1506 1506 1506 1506 1505 1504 1502 1500 1497 1495 1493 1490 1488 1486 1485 1483 1481 1480 1480 1479 1479 1479 1479 1480 1480 1481 1481 1482 1482 1483 1482 1482 1479 1479 1480 1479 1478 1478 1477 1478 1478 1478
1504 1504 1503 1503 1502 1501 1500 1498 1496 1493 1491 1488 1486 1483 1480 1478 1476 1475 1473 1472 1472 1471 1471 1472 1473 1473 1474 1474 1475 1475 1476 1476 1476 1475 1474 1474 1474 1475 1475 1474 1473 1474 1474
1502 1501 1501 1500 1499 1498 1496 1494 1492 1489 1486 1483 1480 1477 1474 1472 1470 1469 1467 1466 1465 1465 1465 1465 1466 1466 1467 1467 1468 1469 1470 1470 1470 1470 1470 1469 1470 1471 1472 1471 1471 1471 1471